User: anonymous   Login
Location: Unspecified
(0.0000°N, 0.0000°E)
Time: 18:20:54
(UTC+00:00)
Language:

A-11 Canister half - Orbit

View from above orbital plane
View from above orbital plane
View from above satellite
View from above satellite

Ground track
Ground track

The orbit data is extracted from the following two-line orbital elements,

1 00051U 60009C   14329.72978490 -.00000084  00000-0  00000+0 0  6861
2 00051 047.2112 149.8840 0102699 244.9842 247.9190 12.18241540416527
Epoch (UTC): 25 November 2014 17:30:53
Eccentricity: 0.0102699
inclination: 47.2112°
perigee height: 1518 km
apogee height: 1682 km
right ascension of ascending node: 149.8840°
argument of perigee: 244.9842°
revolutions per day: 12.18241540
mean anomaly at epoch: 247.9190°
orbit number at epoch: 41652

The dashed part of the orbit path shows where the satellite is in the earth's shadow,  

DLR